LFKB

Bastia - Poretta Airport

Airport
ICAO code
LFKB
IATA Code
BIA
Summary
ICAO Region
EUR
ICAO Territory
Location

Lucciana, Haute-Corse

Serving
Bastia
Elevation
26 ft
Coordinates
42° 33' 9" N , 9° 29' 1" E
KCC
Airport BS
Bird Strike
Metar
Observation
LFKB 091930Z AUTO 30007KT 280V340 9999 FEW060 SCT076 BKN092 16/11 Q0999 TEMPO OVC008 BECMG 14010KT
Station
Bastia
Date/Time
2022-12-09 19:30:00
Wind direction
300°
Wind speed
07 kts
Lowest cloud amount
few clouds
Temperature
16°C
Dew point
11°C
Humidity
72%
QNH
999 hPa
Weather condition
n/a

Description

International airport serving northern Corsica.

Climatology

Dry-summer subtropical ”Mediterranean" climate (Köppen climate classification Csa) - characterized by hot, dry summers and mild winters. During the summer, subtropical high pressure cells dominate, making rainfall unlikely except for the occasional thunderstorm. In the winter, periodic storms bring rain (snow at higher elevations).

Runways

Designator Length Width Surface Rops
16/34 2519 45 ASP Yes/Yes

Airport map

Aerial View

SKYbrary Partners:

Safety knowledge contributed by: